Port Saint Joe - Mexico Beach Weather Center

Moon Phase Calendar



Online Cameras

 


      

Current Conditions in Port Saint Joe
4/10/2021 9:52:24 AM

71°F
Feels Like 72
Clouds
Humidity
100%
Pressure
29.8"
Wind
13.8 mph (S)
Dew Point
71°F
UV Index
2/10 (Low)
Visibility
6 mi

Hourly Forecast

Date & Time Sat, Apr 10
9:00 AM
Sat, Apr 10
10:00 AM
Sat, Apr 10
11:00 AM
Sat, Apr 10
12:00 PM
Sat, Apr 10
1:00 PM
Sat, Apr 10
2:00 PM
Sat, Apr 10
3:00 PM
Sat, Apr 10
4:00 PM
Sat, Apr 10
5:00 PM
Sat, Apr 10
6:00 PM
Sat, Apr 10
7:00 PM
Sat, Apr 10
8:00 PM
Sat, Apr 10
9:00 PM
Sat, Apr 10
10:00 PM
Sat, Apr 10
11:00 PM
Sun, Apr 11
12:00 AM
Sun, Apr 11
1:00 AM
Sun, Apr 11
2:00 AM
Sun, Apr 11
3:00 AM
Sun, Apr 11
4:00 AM
Sun, Apr 11
5:00 AM
Sun, Apr 11
6:00 AM
Sun, Apr 11
7:00 AM
Sun, Apr 11
8:00 AM
Sun, Apr 11
9:00 AM
Sun, Apr 11
10:00 AM
Sun, Apr 11
11:00 AM
Sun, Apr 11
12:00 PM
Sun, Apr 11
1:00 PM
Sun, Apr 11
2:00 PM
Sun, Apr 11
3:00 PM
Sun, Apr 11
4:00 PM
Sun, Apr 11
5:00 PM
Sun, Apr 11
6:00 PM
Sun, Apr 11
7:00 PM
Sun, Apr 11
8:00 PM
Sun, Apr 11
9:00 PM
Sun, Apr 11
10:00 PM
Sun, Apr 11
11:00 PM
Mon, Apr 12
12:00 AM
Mon, Apr 12
1:00 AM
Mon, Apr 12
2:00 AM
Mon, Apr 12
3:00 AM
Mon, Apr 12
4:00 AM
Mon, Apr 12
5:00 AM
Mon, Apr 12
6:00 AM
Mon, Apr 12
7:00 AM
Mon, Apr 12
8:00 AM
Condition
Clouds

Clouds

Clouds

Rain

Rain

Rain

Rain

Rain

Rain

Rain

Clouds

Clouds

Clouds

Clouds

Clouds

Rain

Rain

Rain

Rain

Clear

Clear

Clear

Rain

Rain

Clouds

Clouds

Rain

Rain

Rain

Rain

Rain

Clear

Clear

Clear

Clear

Clear

Clear

Clear

Clear

Clear

Clear

Clear

Clear

Clear

Clear

Clear

Clear

Clear
Temperature 71°F72°F73°F74°F75°F73°F66°F66°F67°F68°F69°F68°F68°F68°F69°F69°F69°F69°F69°F69°F69°F69°F69°F69°F71°F73°F73°F73°F73°F74°F74°F74°F74°F73°F72°F69°F69°F68°F68°F67°F66°F64°F63°F62°F61°F61°F60°F60°F
Feels Like 72°F73°F74°F75°F76°F74°F67°F67°F68°F69°F70°F69°F69°F69°F70°F70°F70°F70°F70°F70°F70°F70°F70°F71°F73°F74°F74°F74°F74°F75°F75°F75°F74°F73°F72°F70°F69°F68°F68°F67°F66°F64°F62°F61°F60°F59°F59°F59°F
Cloudiness 90%95%98%99%100%100%100%100%100%100%100%100%76%41%28%21%17%15%10%7%6%6%6%9%54%51%51%52%54%47%5%6%4%3%2%2%0%0%0%0%0%0%0%0%0%1%1%4%
Visibility 6 mi6 mi6 mi6 mi6 mi3 mi1 mi3 mi6 mi6 mi6 mi6 mi6 mi6 mi6 mi6 mi6 mi6 mi6 mi6 mi6 mi6 mi6 mi6 mi6 mi6 mi6 mi6 mi6 mi6 mi6 mi6 mi6 mi6 mi6 mi6 mi6 mi6 mi6 mi6 mi6 mi6 mi6 mi6 mi6 mi6 mi6 mi6 mi
Precipitation 0%0%0%30%48%69%100%100%100%100%80%80%1%1%9%48%91%95%53%50%43%36%52%54%3%9%65%81%83%83%60%59%48%44%38%38%0%0%0%0%0%0%0%0%0%0%0%0%
Humidity 100%92%85%83%83%88%94%96%94%92%90%91%93%93%93%94%95%95%95%95%95%95%96%97%94%90%87%84%79%73%71%69%68%68%71%77%77%77%77%77%74%70%67%66%65%64%63%63%
Dew Point 71°F69°F69°F69°F69°F69°F65°F65°F65°F66°F66°F66°F66°F66°F67°F67°F67°F67°F67°F68°F68°F68°F68°F68°F69°F70°F69°F68°F66°F65°F64°F63°F62°F62°F62°F62°F62°F61°F60°F59°F58°F55°F52°F51°F50°F49°F48°F48°F
Pressure 29.8"29.8"29.83"29.8"29.83"29.83"29.8"29.8"29.77"29.77"29.74"29.74"29.74"29.74"29.74"29.74"29.74"29.74"29.71"29.71"29.68"29.68"29.71"29.71"29.71"29.71"29.74"29.74"29.74"29.74"29.74"29.71"29.71"29.71"29.71"29.74"29.77"29.8"29.8"29.8"29.83"29.83"29.83"29.83"29.85"29.85"29.85"29.88"
Wind Speed 17.7 mph17.5 mph19.7 mph19 mph15.2 mph11.4 mph14.4 mph4.8 mph5.9 mph11.6 mph10.2 mph9.8 mph8.5 mph7.8 mph5.4 mph6.8 mph7.6 mph6.1 mph5.1 mph4.9 mph4.9 mph5.8 mph6.6 mph6.8 mph6.9 mph7.4 mph9.1 mph9.6 mph10.4 mph11.1 mph12 mph12.6 mph12.7 mph12.8 mph12.1 mph11 mph9.8 mph8.5 mph7.7 mph5.9 mph6.1 mph6.7 mph6.6 mph6.7 mph6.8 mph6.9 mph6.8 mph6.6 mph
Wind
Direction
162°
SSE
169°
S
174°
S
181°
S
189°
S
215°
SW
329°
NNW
36°
NE
160°
SSE
142°
SE
146°
SE
136°
SE
142°
SE
164°
SSE
200°
SSW
217°
SW
231°
SW
234°
SW
228°
SW
217°
SW
204°
SSW
206°
SSW
229°
SW
272°
W
280°
W
282°
WNW
277°
W
286°
WNW
282°
WNW
277°
W
268°
W
263°
W
264°
W
267°
W
267°
W
274°
W
284°
WNW
296°
WNW
310°
NW
331°
NNW
358°
N
12°
NNE
25°
NNE
34°
NE
32°
NNE
35°
NE
40°
NE
36°
NE

Daily Forecast

Date High Low Precip. Humidity
Today
Apr 10

Rain
75 °F
66 °F
100%
83%
Sunday
Apr 11

Rain
74 °F
68 °F
95%
79%
Monday
Apr 12

Clouds
76 °F
60 °F
0%
40%
Tuesday
Apr 13

Rain
76 °F
64 °F
39%
54%
Wednesday
Apr 14

Rain
75 °F
67 °F
95%
65%
Thursday
Apr 15

Clouds
73 °F
58 °F
0%
39%
Friday
Apr 16

Clouds
71 °F
59 °F
23%
65%
Saturday
Apr 17

Rain
66 °F
61 °F
100%
85%
Sunday
Apr 18

Rain
72 °F
62 °F
86%
72%
Monday
Apr 19

Clouds
66 °F
55 °F
0%
45%
Tuesday
Apr 20

Clouds
74 °F
57 °F
0%
39%
Wednesday
Apr 21

Clouds
71 °F
62 °F
21%
54%
Thursday
Apr 22

Rain
74 °F
60 °F
20%
49%
Friday
Apr 23

Rain
78 °F
62 °F
25%
43%
Saturday
Apr 24

Clouds
79 °F
63 °F
20%
34%
Sunday
Apr 25

Clear
77 °F
67 °F
0%
52%

Temperature 8-14 Day Outlook



Precipitation 8-14 Day Outlook




Quick Links
Port Saint Joe - Mexico Beach News
Port Saint Joe - Mexico Beach Photos
Port Saint Joe - Mexico Beach Videos




About Us
Contact Us
Site Map
Search Site
Advertise With Us
   
PortSaintJoe.USGulf.info
THE PORT SAINT JOE - MEXICO BEACH WEBSITE

Copyright 2021, Coastal Town
Privacy    |    Legal